Вернуться в каталог

COSMOS 1275 DEB

АктивенPO
NORAD 42175·DEBRIS·🇷🇺 Russia

Запущен Jun 4, 1981 с Plesetsk Cosmodrome

Loading…

Ближайшие Пролёты (ближайшие 24 часа)

TLE

УстаревающийSource: Space-Track

Эпоха: Sep 4, 2026, 22:11 UTC

1 42175U 81053SP  26247.92484987  .00000079  00000-0  96603-4 0  9992
2 42175  83.0303 129.1124 0140251  10.6565 359.9821 13.49762301630062

Отслеживайте COSMOS 1275 DEB в реальном времени с AllMySat

Download on the App Store